Terminal Aerodrome Forecast
Issued by NWS Atlanta, GA

Home | Current Version | Previous Version | Text Only | Print | Product List | Glossary On
Versions: 1 2 3 4 5 6 7 8 9 10 11 12 13 14 15 16 17 18 19 20 21 22 23 24 25 26 27 28 29 30 31 32 33 34 35 36 37 38 39 40 41
000
FTUS42 KFFC 311300 AAA
TAFATL
TAF AMD
KATL 311357Z 3114/0118 33010KT P6SM SCT100
     FM311900 31012G20KT P6SM BKN080
     FM010000 33018G28KT P6SM BKN025 PROB30 0100/0106 6SM -SHRA
     FM011000 33020G30KT P6SM BKN035
     FM011600 32020G30KT P6SM SCT050=

USA.gov is the U.S. government's official web portal to all federal, state and local government web resources and services.